Probability
0 0 0 0 0 0 0 0 0 0 0 0 0 0 0 0 0 0 0 0 0 0 0 0 0 0 0 0 0 0 0 0 0 0 0 0 0 0 0 0 0 0 0 0
0 0 0 0 0 0 0 0 0 0 0 0 0 0 0 0 0 0 0 0 0 0 0 0 0 0 0 0 0 0 0 0 0 0 0 0 0 0 0 0 0 0 0 0
0 0 0 0 0 0 0 0 0 0 0 0 0 0 0 0 0 0 0 0 0 0 0 0 0 0 0 0 0 0 0 0 0 0 0 0 0 0 0 0 0 0 0 0
0 0 0 0 0 0 0 0 0 0 0 0 0 0 0 0 0 0 0 0 0 0 0 0 0 0 0 0 0 0 0 0 0 0 0 0 0 0 0 0 0 0 0 0
0 0 0 0 0 0 0 0 0 0 0 0 0 0 0 0 0 0 0 0 0 0 0 0 0 0 0 0 0 0 0 0 0 0 0 0 0 0 0 0 0 0 0 0
0 0 0 0 0 0 0 0 0 0 0 0 0 0 0 0 0 0 0 0 0 0 0 0 0 0 0 0 0 0 0 0 0 0 0 0 0 0 0 0 0 0 0 0
0 0 0 0 0 0 0 0 0 0 0 0 0 0 0 0 0 0 0 0 0 0 0 0 0 0 0 0 0 0 0 0 0 0 0 0 0 0 0 0 0 0 0 0
0 0 0 0 0 0 0 0 0 0 0 0 0 0 0 0 0 0 0 0 0 0 0 0 0 0 0 0 0 0 0 0 0 0 0 0 0 0 0 0 0 0 0 0
0 0 0 0 0 0 0 0 0 0 0 0 0 0 0 0 0 0 0 0 0 0 0 0 0 0 0 0 0 0 0 0 0 0 0 0 0 0 0 0 0 0 0 0
0 0 0 0 0 0 0 0 0 0 0 0 0 0 0 0 0 0 0 0 0 0 0 0 0 0 0 0 0 0 0 0 0 0 0 0 0 0 0 0 0 0 0 0
0 0 0 0 0 0 0 0 0 0 0 0 0 0 0 0 0 0 0 0 0 0 0 0 0 0 0 0 0 0 0 0 0 0 0 0 0 0 0 0 0 0 0 0
0 0 0 0 0 0 0 0 0 0 0 0 0 0 0 0 0 0 0 0 0 0 0 0 0 0 0 0 0 0 0 0 0 0 0 0 0 0 0 0 0 0 0 0
0 0 0 0 0 0 0 0 0 0 0 0 0 0 0 0 0 0 0 0 0 0 0 0 0 0 0 0 0 0 0 0 0 0 0 0 0 0 0 0 0 0 0 0
0 0 0 0 0 0 0 0 0 0 0 0 0 0 0 0 0 0 0 0 0 0 0 0 0 0 0 0 0 0 0 0 0 0 0 0 0 0 0 0 0 0 0 0
0 0 0 0 0 0 0 0 0 0 0 0 0 0 0 0 0 0 0 0 0 0 0 0 0 0 0 0 0 0 0 0 0 0 0 0 0 0 0 0 0 0 0 0
0 0 0 0 0 0 0 0 0 0 0 0 0 0 0 0 0 0 0 0 0 0 0 0 0 0 0 0 0 0 0 0 0 0 0 0 0 0 0 0 0 0 0 0
0 0 0 0 0 0 0 0 0 0 0 0 0 0 0 0 0 0 0 0 0 0 0 0 0 0 0 0 0 0 0 0 0 0 0 0 0 0 0 0 0 0 0 0
0 0 0 0 0 0 0 0 0 0 0 0 0 0 0 0 0 0 0 0 0 0 0 0 0 0 0 0 0 0 0 0 0 0 0 0 0 0 0 0 0 0 0 0
0 0 0 0 0 0 0 0 0 0 0 0 0 0 0 0 0 0 0 0 0 0 0 0 0 0 0 0 0 0 0 0 0 0 0 0 0 0 0 0 0 0 0 0
0 0 0 0 0 0 0 0 0 0 0 0 0 0 0 0 0 0 0 0 0 0 0 0 0 0 0 0 0 0 0 0 0 0 0 0 0 0 0 0 0 0 0 0
0 0 0 0 0 0 0 0 0 0 0 0 0 0 0 0 0 0 0 0 0 0 0 0 0 0 0 0 0 0 0 0 0 0 0 0 0 0 0 0 0 0 0 0
0 0 0 0 0 0 0 0 0 0 0 0 0 0 0 0 0 0 0 0 0 0 0 0 0 0 0 0 0 0 0 0 0 0 0 0 0 0 0 0 0 0 0 0
0 0 0 0 0 0 0 0 0 0 0 0 0 0 0 0 0 0 0 0 0 0 0 0 0 0 0 0 0 0 0 0 0 0 0 0 0 0 0 0 0 0 0 0
0 0 0 0 0 0 0 0 0 0 0 0 0 0 0 0 0 0 0 0 0 0 0 0 0 0 0 0 0 0 0 0 0 0 0 0 0 0 0 0 0 0 0 0
0 0 0 0 0 0 0 0 0 0 0 0 0 0 0 0 0 0 0 0 0 0 0 0 0 0 0 0 0 0 0 0 0 0 0 0 0 0 0 0 0 0 0 0
0 0 0 0 0 0 0 0 0 0 0 0 0 0 0 0 0 0 0 0 0 0 0 0 0 0 0 0 0 0 0 0 0 0 0 0 0 0 0 0 0 0 0 0
0 0 0 0 0 0 0 0 0 0 0 0 0 0 0 0 0 0 0 0 0 0 0 0 0 0 0 0 0 0 0 0 0 0 0 0 0 0 0 0 0 0 0 0
Wind_Speed
6 5 0 1 4 5 2 1 3 1 4 4 6 7 7 8 8 9 10 11 11 10 9 9 10 9 10 10 10 11 11 12 12 10 8 7 7 6 4 3 2 3 3 4
3 1 2 4 7 5 5 5 3 5 3 3 6 6 8 9 10 10 11 12 12 12 11 12 12 12 12 11 11 10 10 11 12 10 8 8 8 6 5 4 2 1 1 2
4 3 2 4 7 4 3 4 3 2 3 7 9 10 11 12 11 10 11 12 13 12 11 11 12 11 11 11 12 11 10 11 11 11 9 8 7 7 7 6 4 3 2 1
2 3 0 2 4 5 3 2 3 2 6 8 9 11 12 12 10 10 10 12 13 13 12 12 12 12 11 11 11 11 11 10 10 10 10 9 7 8 8 6 5 5 4 4
2 1 2 3 4 5 4 2 2 5 9 9 9 8 8 7 7 9 11 12 12 12 13 12 13 13 11 12 11 11 11 10 10 10 10 9 9 9 8 7 7 6 6 6
3 2 1 1 6 8 5 3 2 5 9 10 8 7 7 8 10 13 15 13 13 12 12 12 13 11 10 12 12 13 12 11 10 9 9 9 10 9 7 7 8 8 7 7
2 1 1 2 9 7 2 5 7 8 9 9 8 10 11 12 15 15 16 16 15 14 12 12 12 10 11 12 13 14 12 11 10 9 9 9 9 8 7 9 9 9 9 7
2 2 2 3 4 2 5 7 7 9 10 11 13 14 15 15 15 14 15 15 14 13 13 12 11 10 12 14 14 12 11 11 11 10 9 9 8 8 7 9 11 11 9 7
1 0 2 3 4 7 7 8 10 9 12 13 14 15 16 15 15 15 15 15 13 13 13 12 11 10 12 14 13 12 11 11 11 10 9 7 7 7 6 8 10 11 10 10
1 1 4 6 7 7 8 9 11 12 14 13 15 17 17 15 14 14 14 14 14 13 14 13 12 11 12 13 12 11 11 11 10 9 9 8 6 5 5 8 10 12 12 11
1 4 7 6 7 8 9 10 12 13 13 14 16 17 17 16 15 15 14 13 13 13 14 15 13 12 13 12 11 11 11 10 10 9 9 8 7 6 6 9 12 14 13 13
3 5 5 10 10 10 11 12 14 15 15 14 15 18 19 17 15 15 15 14 14 15 15 15 14 13 13 12 11 10 10 9 8 7 7 7 7 8 9 11 14 17 16 15
6 6 7 11 10 10 10 13 16 16 16 18 16 16 17 16 16 15 15 16 16 16 16 15 14 14 13 11 11 10 10 9 7 7 7 7 6 6 7 7 9 15 17 18
7 6 8 9 11 13 14 17 16 15 15 16 16 16 16 17 16 17 18 17 17 17 17 16 15 15 12 10 10 10 10 11 9 7 8 7 6 6 6 7 7 8 10 16
8 7 10 12 11 13 14 14 16 16 15 15 14 16 17 18 19 20 19 18 18 18 18 17 16 15 11 10 10 10 8 7 7 7 7 7 6 6 7 8 9 10 8 9
9 10 11 12 14 15 16 16 16 15 15 16 16 17 18 19 20 20 19 19 19 19 18 17 16 14 11 9 9 8 7 13 11 7 7 6 6 6 7 7 9 11 12 12
7 9 11 14 14 15 15 14 15 15 16 18 19 20 20 21 21 21 20 19 18 18 18 17 16 13 10 8 8 6 6 8 12 8 6 6 6 6 6 6 8 11 11 13
9 10 12 14 15 17 17 15 15 17 17 19 20 20 21 21 22 22 21 20 19 18 16 14 13 11 9 8 7 6 6 6 6 6 6 5 5 6 5 6 9 12 10 11
11 11 13 14 14 15 15 15 16 17 17 18 20 21 21 21 21 21 20 19 18 17 14 11 12 10 7 8 7 5 5 6 6 5 6 6 6 5 5 6 9 11 12 12
10 12 13 14 13 13 15 15 16 17 18 19 20 20 21 21 21 20 19 17 13 11 11 10 9 7 6 6 7 4 5 5 5 5 5 5 5 4 4 6 10 11 11 12
12 12 13 14 14 14 14 16 16 18 19 19 19 20 21 21 21 18 16 14 12 10 10 9 6 4 4 4 4 3 4 4 4 4 4 4 4 3 4 7 10 10 11 11
10 11 13 13 14 15 15 14 15 18 19 19 20 21 21 21 20 17 14 10 10 11 8 5 4 4 3 3 2 3 3 3 3 3 3 3 3 3 5 8 9 10 10 10
9 10 11 13 14 16 16 15 16 17 18 20 20 21 20 18 15 14 13 10 9 11 7 4 4 4 3 2 2 2 3 2 2 2 3 3 2 3 6 8 8 9 9 9
9 10 11 12 13 13 16 18 18 16 17 18 18 19 18 15 13 11 10 13 13 12 6 5 6 5 3 1 2 2 2 2 2 2 3 2 2 4 6 8 8 8 9 10
9 9 9 12 13 12 13 16 17 17 17 15 18 18 15 12 13 13 12 12 12 10 6 5 5 4 2 1 1 1 2 2 2 2 2 1 3 4 6 7 8 8 8 8
7 9 10 11 10 10 11 12 13 13 14 15 15 15 14 12 13 12 11 12 13 10 7 4 3 2 1 1 1 2 2 2 2 2 1 2 4 5 5 6 9 7 7 7
8 8 8 9 9 10 11 12 13 14 14 15 16 15 15 14 14 14 14 11 10 9 7 5 3 2 1 1 1 1 1 0 0 0 1 3 4 5 6 7 6 6 6 7
Wind_Direction
239 247 190 34 11 29 63 264 223 157 105 13 343 335 331 332 336 346 352 353 350 345 339 335 335 334 330 329 330 330 329 326 313 293 269 247 232 229 232 243 265 299 332 356
291 291 136 75 33 43 41 23 62 94 83 343 318 324 331 330 330 337 342 341 336 331 328 326 324 323 322 320 320 321 321 323 322 310 283 255 237 224 218 221 230 260 328 17
282 310 85 44 11 37 61 34 25 45 338 321 326 331 325 315 310 314 322 323 319 315 311 307 305 304 304 304 308 311 311 315 323 322 301 272 247 225 216 212 201 198 193 139
302 4 281 90 45 57 89 94 58 9 318 315 306 301 291 282 276 284 301 307 304 300 298 295 294 292 291 292 294 298 302 307 313 321 315 292 257 235 219 206 197 192 188 175
65 23 123 114 21 0 319 245 86 327 313 308 303 300 289 281 264 272 288 291 288 285 283 284 285 285 287 289 289 291 292 295 303 309 314 309 277 247 225 203 197 192 186 177
54 334 288 59 320 315 277 242 203 290 296 300 316 310 289 280 286 293 296 294 290 288 284 281 282 281 278 281 283 282 281 284 289 293 298 304 295 262 231 209 198 187 185 182
44 315 85 298 306 329 14 291 290 289 287 290 281 269 278 286 289 288 289 290 291 290 287 282 283 283 278 279 276 274 276 279 283 284 287 293 298 275 234 213 193 184 181 179
14 354 343 331 356 27 263 271 282 286 284 284 282 283 288 290 288 287 287 286 284 283 280 280 280 280 281 279 278 278 277 278 279 280 283 296 301 289 246 214 192 181 175 172
75 143 259 263 252 256 262 276 281 279 282 287 288 289 289 287 285 285 283 283 279 275 276 276 273 269 273 276 278 279 278 276 276 279 275 277 290 294 265 220 195 182 179 178
85 277 276 276 269 270 271 270 277 280 283 286 285 287 287 286 284 281 280 279 278 275 275 276 272 270 269 273 274 273 271 272 272 274 275 273 281 283 271 230 200 184 181 179
311 290 303 293 277 280 291 291 289 289 286 284 284 287 287 287 286 284 282 280 276 273 272 272 271 268 269 271 269 269 269 270 270 267 268 271 273 271 273 249 213 188 183 178
257 258 255 271 280 292 292 288 289 292 291 286 282 285 288 288 287 286 285 282 280 276 274 274 271 268 266 264 261 261 266 268 266 265 266 266 275 285 277 258 220 197 182 174
247 264 261 273 285 284 281 284 290 290 289 292 292 289 290 289 289 287 286 286 284 282 279 277 274 271 266 260 257 254 255 261 265 266 264 262 265 279 296 279 208 186 176 171
264 275 284 282 285 289 289 291 292 290 289 288 292 294 294 294 293 292 292 290 288 286 283 279 276 272 266 257 253 253 253 262 266 261 261 257 257 267 277 258 194 174 177 172
283 280 275 285 289 292 294 297 300 300 298 298 297 298 299 299 298 296 294 294 292 288 286 283 279 275 267 255 250 251 251 254 258 260 259 253 254 261 269 252 192 167 156 163
288 293 291 294 297 299 303 304 304 301 302 304 304 303 302 299 297 296 296 295 294 291 289 286 281 277 266 253 248 248 248 261 265 260 255 248 249 258 261 235 182 167 168 161
300 300 301 304 305 303 304 304 303 305 307 308 307 307 306 303 301 300 299 298 294 290 287 284 281 277 265 250 242 242 243 256 267 269 252 244 251 258 254 215 177 168 168 164
285 287 293 299 305 309 310 308 307 308 308 307 308 309 308 307 305 304 303 301 297 292 286 281 279 276 262 251 239 234 237 244 252 256 254 248 252 256 243 198 174 165 158 157
304 300 302 304 305 305 307 308 308 308 307 309 311 310 308 306 305 304 303 302 300 297 293 285 281 278 265 250 245 224 231 244 253 252 252 254 259 252 224 184 168 160 155 157
303 303 305 306 307 307 307 307 308 309 311 312 312 311 310 310 309 307 305 302 296 295 295 292 286 273 256 250 251 224 231 244 251 251 249 250 253 240 203 172 160 156 157 161
303 306 308 310 310 309 307 309 312 312 313 315 315 313 312 311 311 310 308 307 306 309 309 300 289 273 254 242 244 228 233 241 244 244 247 251 252 224 186 163 157 157 160 164
301 306 309 311 312 313 315 314 313 314 315 317 317 315 314 314 314 313 309 306 311 317 317 309 298 275 261 246 225 227 237 241 239 234 243 251 243 205 170 159 156 158 160 162
302 304 308 311 313 313 314 318 320 320 319 319 317 316 316 315 314 315 318 320 320 323 322 313 312 303 287 264 235 236 241 240 234 238 255 258 223 185 164 157 156 156 157 160
306 307 307 309 313 317 321 324 323 321 319 317 315 316 318 318 319 318 316 318 324 326 325 316 312 309 299 249 237 235 237 242 242 254 267 253 196 168 157 154 153 154 155 158
306 307 311 320 326 323 320 320 322 323 322 321 319 322 324 322 322 324 324 325 328 328 329 326 322 311 293 256 240 226 234 244 250 263 265 226 171 155 151 151 151 151 154 157
309 315 315 314 313 315 320 322 323 323 324 324 326 328 329 330 329 329 330 331 333 331 332 329 324 310 280 265 252 246 250 261 270 258 226 168 151 145 142 145 148 152 155 159
312 312 315 322 324 324 324 324 323 324 325 327 329 330 333 337 339 340 339 340 340 341 341 340 338 331 320 300 280 284 287 300 312 131 130 127 133 141 146 150 152 153 156 160